Weather Roundup
Issued by NWS

Home | Current Version | Previous Version | Graphics & Text | Print | Product List | Glossary Off
Versions: 1 2 3 4 5 6 7 8 9 10 11 12 13 14 15 16 17 18 19 20 21 22 23 24 25 26 27 28 29 30 31 32 33 34 35 36 37 38 39 40 41 42 43 44 45 46 47 48 49 50

531
NZUS93 KARX 282010
HRRWXR

CURRENT HOURLY OBSERVATIONS ACROSS
MUCH OF THE UPPER MISSISSIPPI VALLEY
NATIONAL WEATHER SERVICE LA CROSSE WI
300 PM CDT SAT MAY 28 2016


...SOUTHEAST MINNESOTA...


CITY           SKY/WX    TMP DP  RH WIND       PRES   REMARKS
ROCHESTER      PTSUNNY   73  65  75 SW20      29.77F
ROCHESTER/MAYO MOCLDY    72  62  69 S10G18    29.77S
WINONA         MOSUNNY   77  61  57 CALM      29.75F
AUSTIN         PTSUNNY   72  63  73 S9        29.76S
ALBERT LEA     CLOUDY    63  61  94 W9G23     29.78R
DODGE CENTER   SUNNY     73  61  64 S12G20    29.76F
PRESTON        PTSUNNY   73  62  68 SW8       29.77F
OWATONNA       RAIN      66  61  82 W10       29.76S
FARIBAULT      CLOUDY    66  63  88 SW3       29.76F
$$

...ELSEWHERE IN MINNESOTA...


CITY           SKY/WX    TMP DP  RH WIND       PRES   REMARKS
MINNEAPOLIS    CLOUDY    66  59  78 NW9       29.75F
INTNL FALLS    CLOUDY    60  57  89 E9        29.81S FOG
DULUTH         CLOUDY    61  55  81 CALM      29.78S
RED WING       CLOUDY    73  64  73 SE5       29.73S
REDWOOD FALLS  CLOUDY    62  59  90 NW6       29.78S
MANKATO        PTSUNNY   64  61  88 CALM      29.76S
WORTHINGTON    LGT RAIN  66  61  84 N7        29.77S
FAIRMONT       CLOUDY    64  61  88 CALM      29.77R THUNDER
$$

...SOUTHWEST WISCONSIN...


CITY           SKY/WX    TMP DP  RH WIND       PRES   REMARKS
LA CROSSE      MOSUNNY   79  63  57 S13       29.75F
PRAIRIE DU CHI PTSUNNY   78  59  50 SE5       29.77F
BOSCOBEL       MOSUNNY   80  61  52 S13G20    29.78F
LONE ROCK      MOSUNNY   82  62  50 S17       29.80F
PLATTEVILLE    PTSUNNY   80  64  59 S17G26    29.81F
FORT MC COY    PTSUNNY   79  62  55 S13G20    29.78F
CAMP DOUGLAS   PTSUNNY   77  63  61 SW10G23   29.79F
MAUSTON-NEW LI PTCLDY    79  62  56 S12G17    29.79F
VIROQUA        MOCLDY    76  61  58 S10       29.80F
WIS DELLS      PTSUNNY   78  61  55 SW12G20   29.80F
$$

...ELSEWHERE IN WISCONSIN...


CITY           SKY/WX    TMP DP  RH WIND       PRES   REMARKS
MILWAUKEE      PTSUNNY   80  65  59 S14G26    29.87F
MADISON        PTSUNNY   81  61  50 S20G28    29.81F
GREEN BAY      MOSUNNY   80  66  62 S18G25    29.81F
EAU CLAIRE     PTSUNNY   71  65  81 SW7       29.75F
BLACK RVR FLS  MOCLDY    79  59  50 SW7       29.77F
MEDFORD        CLOUDY    68  66  93 SW14      29.79R
WAUSAU         MOSUNNY   79  63  57 S22G30    29.76S
WIS RAPIDS     MOSUNNY   78  58  49 SW18G26   29.81R
MARSHFIELD     MOSUNNY   77  65  66 W16       29.78S
RICE LAKE      DRIZZLE   69  62  79 CALM      29.78S
$$

...NORTHEAST IOWA...


CITY           SKY/WX    TMP DP  RH WIND       PRES   REMARKS
WATERLOO       MOSUNNY   73  61  65 S9        29.76F
DUBUQUE        MOSUNNY   78  63  59 S16       29.80F
DECORAH        PTSUNNY   75  61  60 S9G16     29.77F
MASON CITY     CLOUDY    72  64  76 S15       29.77R
CHARLES CITY   CLOUDY    73  66  78 S13       29.77F
OELWEIN        PTSUNNY   75  63  64 SW10G17   29.78S
$$

...ELSEWHERE IN IOWA...


CITY           SKY/WX    TMP DP  RH WIND       PRES   REMARKS
DES MOINES     PTSUNNY   70  62  76 SW10      29.79S
IOWA CITY      CLOUDY    78  67  68 S17       29.79F
FORT DODGE     PTSUNNY   73  57  56 SW10      29.76F
MARSHALLTOWN   CLOUDY    67  65  93 S8        29.78R
CEDAR RAPIDS   LGT RAIN  73  70  90 S13       29.78S
$$

...NORTHERN ILLINOIS...


CITY           SKY/WX    TMP DP  RH WIND       PRES   REMARKS
CHICAGO-OHARE  PTSUNNY   78  65  63 S20G25    29.90F
CHICAGO-MIDWAY CLOUDY    79  64  60 SW18G25   29.92F
MOLINE         SUNNY     84  65  52 S18G29    29.80F
ROCKFORD       PTSUNNY   81  62  52 S15G26    29.87F
PEORIA         MOSUNNY   84  62  47 S17G28    29.87F
$$

NOTE: "FAIR" INDICATES FEW OR NO CLOUDS BELOW 12,000 FEET WITH NO
SIGNIFICANT WEATHER AND/OR OBSTRUCTIONS TO VISIBILITY. WIND
SPEEDS ARE IN MILES-PER-HOUR.




USA.gov is the U.S. government's official web portal to all federal, state and local government web resources and services.